SCP
-0 -0 -0 -0 -0 -0 0 0 0 0 0 0 1 0 0 -0 0 0 0 0 0 0 0 0 0 0 -0 0 0 0 0 0 0 0 0 0 0 0 0 0 0 0 0
0 0 0 0 -0 -0 -0 -0 -0 -0 -0 -0 0 0 -0 -0 -0 0 0 0 0 0 0 0 0 0 0 0 0 0 0 0 0 0 0 0 0 0 0 0 0 0 0
0 0 0 -0 -0 -0 -0 -0 -0 -0 -0 -0 -0 -1 -1 -1 -1 -1 -0 -0 0 0 0 0 0 0 0 0 0 0 0 0 0 0 0 0 0 0 0 0 0 0 0
0 0 -0 -0 -0 -0 -0 -1 -0 -0 -0 -0 -0 -1 -2 -2 -2 -1 -1 -0 -0 -0 0 -0 0 0 0 0 0 0 0 0 0 0 0 0 1 1 0 0 0 0 0
-0 -0 -1 -0 -0 -0 -0 -0 -1 -1 -1 -1 -1 -1 -1 -2 -2 -2 -2 -1 -1 -0 -0 0 -0 -0 -0 0 1 0 0 0 0 0 0 0 0 1 1 1 0 0 0
-0 -1 -1 -1 -1 -1 -0 -0 -1 -1 -1 -1 -1 -1 -2 -2 -3 -3 -3 -1 -1 -1 -1 -1 -0 0 0 0 0 0 0 0 0 1 0 0 0 0 1 1 1 1 1
0 -0 -1 -1 -1 -1 -1 -1 -1 -1 -1 -1 -1 -1 -2 -2 -2 -2 -2 -1 -1 -1 -1 0 0 0 0 1 0 0 0 1 0 0 1 0 0 0 1 1 0 0 0
0 0 0 -0 -1 -1 -2 -2 -1 -1 -1 -1 -1 -1 -1 -1 -1 -1 -0 -1 -1 -1 -1 0 -0 1 -0 1 2 1 0 1 0 0 0 0 0 0 0 1 0 1 1
1 1 1 1 -0 -1 -3 -2 -1 -0 0 -0 -0 -0 -1 -1 -0 -0 0 0 0 -1 1 1 3 2 3 3 4 3 2 2 1 0 0 0 0 2 2 2 2 2 1
1 2 3 2 1 -1 -2 -1 0 0 0 1 0 0 -0 -0 0 0 0 2 1 2 2 1 2 3 4 3 4 6 5 4 3 2 0 0 0 1 1 1 1 1 0
2 2 3 3 2 2 2 2 3 3 2 1 1 1 0 0 1 1 0 2 3 3 2 2 3 2 1 2 1 4 5 6 4 2 1 0 1 1 1 1 1 0 0
1 1 1 2 4 5 4 4 5 6 5 3 2 2 1 1 1 2 0 0 3 3 4 4 4 2 1 0 0 1 2 3 5 5 3 1 1 1 0 0 0 0 0
3 2 3 4 5 4 6 6 7 6 6 4 3 3 2 2 3 2 1 0 0 2 4 3 3 2 1 1 0 0 0 0 6 7 7 4 1 0 0 0 0 0 0
1 2 3 5 7 5 8 6 6 6 6 5 4 3 3 3 3 3 1 0 0 0 1 2 2 1 0 1 0 0 0 0 2 6 7 2 0 0 0 0 0 0 0
1 1 3 6 5 6 0 0 4 2 3 5 5 5 3 3 3 3 3 1 1 0 1 2 3 3 3 2 0 0 0 0 1 3 3 1 0 0 0 0 0 0 0
3 3 4 6 6 3 0 0 0 0 0 0 0 4 0 0 0 0 0 0 0 0 1 3 4 5 4 2 1 0 0 0 1 2 2 1 0 0 0 0 0 0 0
2 3 3 5 7 4 1 0 0 0 0 0 0 0 0 0 0 0 0 0 0 1 2 1 0 0 0 0 0 0 0 0 0 0 0 0 0 0 0 0 0 0 0
3 2 2 3 5 6 3 1 0 0 0 0 0 0 0 0 0 0 0 0 0 0 0 0 0 0 0 0 0 0 0 0 0 0 0 0 0 0 0 0 0 0 0
2 4 3 3 4 6 5 3 1 1 0 0 0 0 0 0 0 0 0 0 0 0 0 0 0 0 0 0 0 0 0 0 0 0 0 0 0 0 0 0 0 -0 0
2 2 4 6 7 7 8 6 4 0 0 0 0 0 0 0 0 0 0 0 0 0 0 0 0 0 0 0 0 0 0 0 0 0 0 0 0 0 0 0 0 0 0
1 3 4 5 4 5 4 3 1 1 0 0 0 0 0 0 0 0 0 0 0 0 0 0 0 0 0 0 0 0 0 0 0 0 0 0 0 0 0 0 0 0 0
1 2 2 2 2 2 2 1 1 0 0 0 0 0 0 0 0 0 0 0 0 0 0 0 0 0 0 0 0 0 0 0 0 0 0 0 0 0 0 -0 0 0 0
1 1 1 0 0 0 0 0 0 0 0 0 0 0 0 0 0 0 0 0 0 0 0 0 0 0 0 0 0 0 0 0 0 0 0 0 0 0 0 0 0 0 0
0 0 0 0 0 0 0 0 0 0 0 0 0 0 0 0 0 0 0 0 0 0 0 0 0 0 0 0 0 0 0 0 0 0 0 0 0 0 0 0 0 0 0
0 0 0 0 0 0 0 0 0 0 0 0 0 0 0 0 0 0 0 0 0 0 0 0 0 0 0 0 0 0 0 0 0 0 0 0 0 0 0 0 0 0 0
0 0 0 0 0 0 0 0 0 0 0 0 0 0 0 0 0 0 0 0 0 0 0 0 0 0 0 0 0 0 0 0 0 0 0 0 0 0 0 0 0 0 0
Wind_Speed_500mb
86 82 82 81 81 85 86 74 71 68 60 58 62 42 51 54 50 39 44 51 56 49 46 42 39 41 44 42 35 34 33 35 36 26 18 31 37 38 31 30 35 36 28
88 83 83 81 80 81 84 81 73 73 73 65 60 61 51 51 53 49 42 52 56 55 52 52 47 42 47 53 50 46 43 41 39 36 38 34 46 39 35 31 28 38 41
94 88 83 83 82 82 80 79 78 74 73 78 71 66 68 64 57 54 49 44 52 58 59 56 54 53 54 54 61 59 55 48 49 47 44 44 43 43 43 41 35 29 29
95 93 90 86 84 81 81 82 82 82 80 79 78 81 82 75 74 67 62 54 50 56 66 68 66 67 66 60 58 65 65 62 58 60 59 61 60 52 49 50 47 35 24
88 88 87 84 81 80 81 82 81 83 86 85 84 84 85 88 86 83 77 71 67 63 62 71 76 75 73 71 65 63 67 77 75 73 76 74 71 73 72 63 59 42 32
94 87 78 80 81 80 79 78 78 79 81 84 88 88 89 91 92 89 82 80 77 76 73 70 73 78 80 80 77 72 70 73 85 90 88 87 80 75 70 69 65 57 55
94 90 87 82 78 78 76 77 81 83 81 82 83 83 87 89 91 91 88 85 84 83 83 81 78 78 79 81 84 81 80 76 78 83 94 98 87 82 70 74 70 64 64
93 96 93 92 88 81 80 81 80 80 85 88 89 88 87 87 86 88 88 89 91 93 93 90 91 87 84 84 83 84 86 88 86 85 89 91 90 87 75 72 73 62 59
92 92 94 93 92 93 92 90 86 84 84 88 90 93 97 96 92 88 88 92 99 105 102 99 98 100 98 91 87 90 91 96 88 84 84 89 87 83 83 70 73 67 68
95 93 88 86 91 92 92 91 91 89 88 84 88 92 94 98 97 95 92 90 97 105 104 108 105 106 104 96 95 98 103 108 96 96 96 95 99 90 91 90 93 86 78
71 74 77 80 87 89 86 89 92 93 90 90 88 87 91 92 90 90 90 91 99 98 103 107 105 103 98 92 94 100 108 96 102 105 109 110 106 110 102 101 103 94 90
50 67 68 64 65 74 84 86 88 90 90 90 88 86 87 87 86 84 82 85 83 86 95 96 94 89 86 77 72 69 69 78 91 101 114 116 110 104 111 106 114 87 87
32 44 61 71 67 66 66 79 83 85 87 88 87 86 83 78 76 74 73 69 68 72 76 81 85 88 87 82 62 52 46 71 85 94 107 113 109 110 103 109 95 77 67
40 43 51 54 61 59 60 66 71 81 85 86 82 80 75 69 68 63 63 61 52 53 54 56 66 74 81 86 88 87 100 92 78 81 92 109 110 99 94 79 81 64 82
39 42 51 55 60 60 60 65 69 73 78 80 79 74 64 60 60 55 48 46 50 48 43 48 54 65 69 66 64 63 59 65 74 80 82 90 103 107 104 82 55 56 91
44 37 42 50 57 62 63 64 65 61 66 66 60 52 51 54 51 45 49 49 49 47 47 50 56 57 59 58 65 65 61 61 61 52 52 70 72 39 41 59 58 81 72
47 42 44 49 55 61 63 63 66 66 63 53 54 54 52 53 48 44 47 45 44 44 46 47 47 49 53 57 57 58 46 43 35 33 48 22 15 31 27 28 43 49 42
36 39 42 46 54 57 58 56 52 61 59 55 52 47 48 45 43 42 43 46 49 53 54 50 49 49 44 37 31 26 20 19 26 24 27 18 15 26 40 38 37 40 42
31 33 42 48 50 57 57 54 50 47 51 50 49 48 43 41 39 40 41 43 41 31 26 22 20 19 18 19 22 23 22 19 14 13 12 21 19 32 32 32 41 40 43
34 37 30 44 54 58 59 52 44 38 36 29 30 23 23 20 23 25 24 21 21 20 18 17 13 12 10 12 12 18 24 25 21 20 16 10 21 27 38 37 41 48 51
35 34 25 32 46 47 52 49 42 37 31 28 25 18 11 12 10 7 11 13 13 15 17 14 14 9 3 3 4 4 4 8 21 20 16 23 30 25 28 40 46 44 41
42 39 32 36 41 47 50 47 45 39 28 22 15 12 17 15 8 8 8 9 6 6 9 11 10 6 6 8 12 13 13 12 11 17 23 14 22 28 36 42 38 35 32
30 42 37 39 41 39 36 32 27 23 18 9 11 13 18 12 5 12 8 10 10 8 9 7 7 12 15 18 22 24 19 21 22 16 22 27 36 39 33 33 35 40 43
60 57 64 58 49 46 46 50 51 45 37 30 26 25 21 20 19 14 12 17 11 4 6 9 6 4 9 5 6 15 15 12 14 22 25 35 36 33 37 34 38 43 45
75 79 73 68 70 67 59 52 46 44 38 35 33 34 30 27 24 20 15 17 14 12 8 9 9 7 3 5 5 13 12 9 11 10 25 29 31 37 38 40 38 38 38
78 73 71 71 69 65 57 49 44 40 37 33 31 28 27 23 23 20 15 16 16 17 20 17 13 14 17 19 20 17 17 17 18 21 25 31 29 33 40 43 45 45 42
Wind_Direction_500mb
224 224 225 225 223 225 229 228 224 223 220 224 233 242 236 235 239 249 244 238 238 241 245 242 234 224 217 219 222 236 225 225 236 223 225 232 233 237 248 257 257 258 264
226 227 227 229 230 226 226 230 228 225 224 221 226 234 235 237 240 247 251 238 234 237 242 247 248 242 230 224 228 231 239 233 229 231 229 228 226 236 250 258 271 267 262
226 228 230 230 232 233 230 229 232 230 228 226 223 232 237 241 243 247 253 251 243 243 243 244 249 250 249 238 230 234 236 236 236 236 235 238 240 240 244 244 255 270 261
225 229 231 233 233 235 237 235 233 236 235 233 231 233 239 243 246 249 251 251 250 246 246 247 247 247 250 250 243 239 238 238 237 239 236 236 240 242 244 247 245 251 244
224 228 232 234 235 236 238 240 240 238 240 241 241 240 240 242 245 247 250 253 253 252 248 248 252 254 254 254 252 248 241 239 238 240 244 242 238 239 240 243 243 248 238
219 226 232 235 235 236 238 239 241 243 241 242 243 244 244 245 247 250 251 253 254 254 255 256 256 258 261 261 260 257 252 248 245 243 249 246 246 239 240 242 242 239 236
220 224 228 232 235 238 240 241 242 242 244 244 243 244 245 246 247 250 252 253 255 255 257 260 260 259 260 261 262 261 259 254 252 254 253 253 254 252 240 238 238 241 240
220 226 227 230 234 237 239 242 243 244 244 246 247 248 247 248 248 249 251 254 257 257 259 261 261 263 263 262 262 262 263 263 261 255 254 256 258 260 252 242 240 237 235
222 227 230 231 234 237 239 242 245 245 246 248 250 250 251 252 251 251 251 250 253 258 259 261 263 264 265 265 264 266 266 266 268 267 267 266 258 253 249 244 242 234 222
224 228 228 234 238 239 242 245 246 247 250 251 253 254 255 257 257 257 255 252 255 257 258 263 264 264 265 263 262 266 268 270 269 273 270 264 261 253 242 232 233 224 240
223 226 230 236 240 243 245 245 245 246 248 250 252 255 258 259 260 260 259 255 257 257 258 259 261 265 264 262 264 262 266 274 275 273 271 268 256 248 242 239 234 231 242
232 233 235 235 237 242 244 244 244 244 246 249 251 254 257 258 260 262 261 259 258 259 261 263 264 264 263 264 270 271 268 267 265 268 268 264 260 253 243 234 239 227 240
247 238 245 244 242 239 242 242 240 242 244 246 246 251 256 257 257 259 262 263 262 258 259 264 266 264 266 266 268 270 270 262 260 265 266 262 260 256 249 237 234 230 256
265 253 246 246 243 239 238 241 240 240 241 242 246 248 251 255 260 261 261 261 261 260 262 267 268 268 268 268 271 274 276 279 275 270 272 270 264 253 247 229 222 237 231
279 267 250 243 241 238 230 230 235 238 241 243 245 247 249 254 255 256 258 261 256 262 265 265 265 264 267 272 276 277 282 279 276 278 276 275 271 257 231 206 222 219 227
278 270 245 240 236 234 234 229 226 233 237 238 239 244 246 244 248 250 255 250 256 259 263 268 263 270 268 270 277 279 280 280 280 282 280 274 256 250 254 225 217 218 207
256 259 245 236 232 231 230 230 229 227 233 230 235 236 237 239 248 243 241 246 254 263 270 278 276 264 262 268 272 278 285 287 281 277 267 237 231 279 207 211 190 176 177
253 257 239 237 224 230 228 230 230 232 232 225 227 231 230 229 232 241 248 257 267 273 277 273 267 267 271 273 280 295 309 309 298 274 252 262 259 228 174 169 179 187 200
263 257 241 234 227 226 228 223 224 226 227 228 225 225 230 238 246 255 264 268 269 262 257 257 263 273 285 297 295 284 265 281 255 227 229 279 249 230 221 201 193 193 179
243 241 245 229 223 220 213 195 184 189 195 197 212 216 217 222 238 245 245 244 251 257 256 261 266 268 266 278 275 270 265 257 232 214 193 237 199 187 183 192 197 184 185
238 227 194 168 173 165 171 170 165 161 169 169 179 173 192 214 215 226 247 249 251 240 229 227 249 257 282 281 301 344 241 209 199 211 219 192 189 199 192 183 183 186 190
235 218 172 169 162 157 155 160 166 166 162 175 179 186 186 208 201 251 287 215 195 180 190 202 225 210 222 260 254 255 208 192 192 179 176 196 202 190 179 180 184 188 192
204 190 181 164 150 140 142 137 137 153 163 152 127 145 178 178 198 240 201 204 173 166 182 212 254 272 278 274 260 232 233 229 214 215 224 198 185 180 186 192 199 208 211
157 158 145 140 141 136 133 129 128 130 130 130 130 137 156 161 159 150 127 92 84 113 10 341 331 285 263 269 253 228 197 164 186 198 196 191 193 199 213 214 220 221 213
148 146 140 136 134 133 127 127 131 133 132 128 131 130 135 146 159 164 165 174 173 175 165 126 80 44 99 136 235 193 185 171 155 174 194 200 206 204 208 223 219 213 215
133 138 135 133 134 134 131 131 126 124 120 116 114 112 114 116 120 130 152 172 189 198 207 204 197 190 183 178 192 219 233 233 223 221 219 225 226 218 216 221 229 231 225
Wind_Speed_850mb
86 82 82 81 81 85 86 74 71 68 60 58 62 42 51 54 50 39 44 51 56 49 46 42 39 41 44 42 35 34 33 35 36 26 18 31 37 38 31 30 35 36 28
88 83 83 81 80 81 84 81 73 73 73 65 60 61 51 51 53 49 42 52 56 55 52 52 47 42 47 53 50 46 43 41 39 36 38 34 46 39 35 31 28 38 41
94 88 83 83 82 82 80 79 78 74 73 78 71 66 68 64 57 54 49 44 52 58 59 56 54 53 54 54 61 59 55 48 49 47 44 44 43 43 43 41 35 29 29
95 93 90 86 84 81 81 82 82 82 80 79 78 81 82 75 74 67 62 54 50 56 66 68 66 67 66 60 58 65 65 62 58 60 59 61 60 52 49 50 47 35 24
88 88 87 84 81 80 81 82 81 83 86 85 84 84 85 88 86 83 77 71 67 63 62 71 76 75 73 71 65 63 67 77 75 73 76 74 71 73 72 63 59 42 32
94 87 78 80 81 80 79 78 78 79 81 84 88 88 89 91 92 89 82 80 77 76 73 70 73 78 80 80 77 72 70 73 85 90 88 87 80 75 70 69 65 57 55
94 90 87 82 78 78 76 77 81 83 81 82 83 83 87 89 91 91 88 85 84 83 83 81 78 78 79 81 84 81 80 76 78 83 94 98 87 82 70 74 70 64 64
93 96 93 92 88 81 80 81 80 80 85 88 89 88 87 87 86 88 88 89 91 93 93 90 91 87 84 84 83 84 86 88 86 85 89 91 90 87 75 72 73 62 59
92 92 94 93 92 93 92 90 86 84 84 88 90 93 97 96 92 88 88 92 99 105 102 99 98 100 98 91 87 90 91 96 88 84 84 89 87 83 83 70 73 67 68
95 93 88 86 91 92 92 91 91 89 88 84 88 92 94 98 97 95 92 90 97 105 104 108 105 106 104 96 95 98 103 108 96 96 96 95 99 90 91 90 93 86 78
71 74 77 80 87 89 86 89 92 93 90 90 88 87 91 92 90 90 90 91 99 98 103 107 105 103 98 92 94 100 108 96 102 105 109 110 106 110 102 101 103 94 90
50 67 68 64 65 74 84 86 88 90 90 90 88 86 87 87 86 84 82 85 83 86 95 96 94 89 86 77 72 69 69 78 91 101 114 116 110 104 111 106 114 87 87
32 44 61 71 67 66 66 79 83 85 87 88 87 86 83 78 76 74 73 69 68 72 76 81 85 88 87 82 62 52 46 71 85 94 107 113 109 110 103 109 95 77 67
40 43 51 54 61 59 60 66 71 81 85 86 82 80 75 69 68 63 63 61 52 53 54 56 66 74 81 86 88 87 100 92 78 81 92 109 110 99 94 79 81 64 82
39 42 51 55 60 60 60 65 69 73 78 80 79 74 64 60 60 55 48 46 50 48 43 48 54 65 69 66 64 63 59 65 74 80 82 90 103 107 104 82 55 56 91
44 37 42 50 57 62 63 64 65 61 66 66 60 52 51 54 51 45 49 49 49 47 47 50 56 57 59 58 65 65 61 61 61 52 52 70 72 39 41 59 58 81 72
47 42 44 49 55 61 63 63 66 66 63 53 54 54 52 53 48 44 47 45 44 44 46 47 47 49 53 57 57 58 46 43 35 33 48 22 15 31 27 28 43 49 42
36 39 42 46 54 57 58 56 52 61 59 55 52 47 48 45 43 42 43 46 49 53 54 50 49 49 44 37 31 26 20 19 26 24 27 18 15 26 40 38 37 40 42
31 33 42 48 50 57 57 54 50 47 51 50 49 48 43 41 39 40 41 43 41 31 26 22 20 19 18 19 22 23 22 19 14 13 12 21 19 32 32 32 41 40 43
34 37 30 44 54 58 59 52 44 38 36 29 30 23 23 20 23 25 24 21 21 20 18 17 13 12 10 12 12 18 24 25 21 20 16 10 21 27 38 37 41 48 51
35 34 25 32 46 47 52 49 42 37 31 28 25 18 11 12 10 7 11 13 13 15 17 14 14 9 3 3 4 4 4 8 21 20 16 23 30 25 28 40 46 44 41
42 39 32 36 41 47 50 47 45 39 28 22 15 12 17 15 8 8 8 9 6 6 9 11 10 6 6 8 12 13 13 12 11 17 23 14 22 28 36 42 38 35 32
30 42 37 39 41 39 36 32 27 23 18 9 11 13 18 12 5 12 8 10 10 8 9 7 7 12 15 18 22 24 19 21 22 16 22 27 36 39 33 33 35 40 43
60 57 64 58 49 46 46 50 51 45 37 30 26 25 21 20 19 14 12 17 11 4 6 9 6 4 9 5 6 15 15 12 14 22 25 35 36 33 37 34 38 43 45
75 79 73 68 70 67 59 52 46 44 38 35 33 34 30 27 24 20 15 17 14 12 8 9 9 7 3 5 5 13 12 9 11 10 25 29 31 37 38 40 38 38 38
78 73 71 71 69 65 57 49 44 40 37 33 31 28 27 23 23 20 15 16 16 17 20 17 13 14 17 19 20 17 17 17 18 21 25 31 29 33 40 43 45 45 42
Wind_Direction_850mb
224 224 225 225 223 225 229 228 224 223 220 224 233 242 236 235 239 249 244 238 238 241 245 242 234 224 217 219 222 236 225 225 236 223 225 232 233 237 248 257 257 258 264
226 227 227 229 230 226 226 230 228 225 224 221 226 234 235 237 240 247 251 238 234 237 242 247 248 242 230 224 228 231 239 233 229 231 229 228 226 236 250 258 271 267 262
226 228 230 230 232 233 230 229 232 230 228 226 223 232 237 241 243 247 253 251 243 243 243 244 249 250 249 238 230 234 236 236 236 236 235 238 240 240 244 244 255 270 261
225 229 231 233 233 235 237 235 233 236 235 233 231 233 239 243 246 249 251 251 250 246 246 247 247 247 250 250 243 239 238 238 237 239 236 236 240 242 244 247 245 251 244
224 228 232 234 235 236 238 240 240 238 240 241 241 240 240 242 245 247 250 253 253 252 248 248 252 254 254 254 252 248 241 239 238 240 244 242 238 239 240 243 243 248 238
219 226 232 235 235 236 238 239 241 243 241 242 243 244 244 245 247 250 251 253 254 254 255 256 256 258 261 261 260 257 252 248 245 243 249 246 246 239 240 242 242 239 236
220 224 228 232 235 238 240 241 242 242 244 244 243 244 245 246 247 250 252 253 255 255 257 260 260 259 260 261 262 261 259 254 252 254 253 253 254 252 240 238 238 241 240
220 226 227 230 234 237 239 242 243 244 244 246 247 248 247 248 248 249 251 254 257 257 259 261 261 263 263 262 262 262 263 263 261 255 254 256 258 260 252 242 240 237 235
222 227 230 231 234 237 239 242 245 245 246 248 250 250 251 252 251 251 251 250 253 258 259 261 263 264 265 265 264 266 266 266 268 267 267 266 258 253 249 244 242 234 222
224 228 228 234 238 239 242 245 246 247 250 251 253 254 255 257 257 257 255 252 255 257 258 263 264 264 265 263 262 266 268 270 269 273 270 264 261 253 242 232 233 224 240
223 226 230 236 240 243 245 245 245 246 248 250 252 255 258 259 260 260 259 255 257 257 258 259 261 265 264 262 264 262 266 274 275 273 271 268 256 248 242 239 234 231 242
232 233 235 235 237 242 244 244 244 244 246 249 251 254 257 258 260 262 261 259 258 259 261 263 264 264 263 264 270 271 268 267 265 268 268 264 260 253 243 234 239 227 240
247 238 245 244 242 239 242 242 240 242 244 246 246 251 256 257 257 259 262 263 262 258 259 264 266 264 266 266 268 270 270 262 260 265 266 262 260 256 249 237 234 230 256
265 253 246 246 243 239 238 241 240 240 241 242 246 248 251 255 260 261 261 261 261 260 262 267 268 268 268 268 271 274 276 279 275 270 272 270 264 253 247 229 222 237 231
279 267 250 243 241 238 230 230 235 238 241 243 245 247 249 254 255 256 258 261 256 262 265 265 265 264 267 272 276 277 282 279 276 278 276 275 271 257 231 206 222 219 227
278 270 245 240 236 234 234 229 226 233 237 238 239 244 246 244 248 250 255 250 256 259 263 268 263 270 268 270 277 279 280 280 280 282 280 274 256 250 254 225 217 218 207
256 259 245 236 232 231 230 230 229 227 233 230 235 236 237 239 248 243 241 246 254 263 270 278 276 264 262 268 272 278 285 287 281 277 267 237 231 279 207 211 190 176 177
253 257 239 237 224 230 228 230 230 232 232 225 227 231 230 229 232 241 248 257 267 273 277 273 267 267 271 273 280 295 309 309 298 274 252 262 259 228 174 169 179 187 200
263 257 241 234 227 226 228 223 224 226 227 228 225 225 230 238 246 255 264 268 269 262 257 257 263 273 285 297 295 284 265 281 255 227 229 279 249 230 221 201 193 193 179
243 241 245 229 223 220 213 195 184 189 195 197 212 216 217 222 238 245 245 244 251 257 256 261 266 268 266 278 275 270 265 257 232 214 193 237 199 187 183 192 197 184 185
238 227 194 168 173 165 171 170 165 161 169 169 179 173 192 214 215 226 247 249 251 240 229 227 249 257 282 281 301 344 241 209 199 211 219 192 189 199 192 183 183 186 190
235 218 172 169 162 157 155 160 166 166 162 175 179 186 186 208 201 251 287 215 195 180 190 202 225 210 222 260 254 255 208 192 192 179 176 196 202 190 179 180 184 188 192
204 190 181 164 150 140 142 137 137 153 163 152 127 145 178 178 198 240 201 204 173 166 182 212 254 272 278 274 260 232 233 229 214 215 224 198 185 180 186 192 199 208 211
157 158 145 140 141 136 133 129 128 130 130 130 130 137 156 161 159 150 127 92 84 113 10 341 331 285 263 269 253 228 197 164 186 198 196 191 193 199 213 214 220 221 213
148 146 140 136 134 133 127 127 131 133 132 128 131 130 135 146 159 164 165 174 173 175 165 126 80 44 99 136 235 193 185 171 155 174 194 200 206 204 208 223 219 213 215
133 138 135 133 134 134 131 131 126 124 120 116 114 112 114 116 120 130 152 172 189 198 207 204 197 190 183 178 192 219 233 233 223 221 219 225 226 218 216 221 229 231 225